DW4554 Weather Reports


Display with metric or nautical units.
time (UTC)temp
F
wind
direction
speed
MPH
gust
MPH
rain 1hr
in
rain 24hr
in
rain mn
in
humidity
%
barometer
mb
20260902052905 53 5 0.0 0.0 0.00 0.00 0.00 92 1019.7
20260902051404 52 5 0.0 1.0 0.00 0.00 0.00 92 1019.5
20260902050904 52 5 0.0 0.0 0.00 0.00 0.00 92 1019.5
20260902050404 52 5 0.0 0.0 0.00 0.00 0.00 91 1019.5
20260902044404 52 5 0.0 0.0 0.00 0.00 0.00 91 1019.4
20260902043904 52 5 0.0 0.0 0.00 0.00 0.00 91 1019.4
20260902043404 52 5 0.0 0.0 0.00 0.00 0.00 91 1019.3
20260902042904 52 5 0.0 0.0 0.00 0.00 0.00 91 1019.3
20260902042404 52 5 0.0 2.0 0.00 0.00 0.00 91 1019.3
20260902041404 52 5 1.0 2.0 0.00 0.00 0.00 91 1019.2
20260902040904 52 5 1.0 2.0 0.00 0.00 0.00 90 1019.1
20260902035904 52 5 0.0 0.0 0.00 0.00 0.00 90 1019.2
20260902035405 52 5 0.0 0.0 0.00 0.00 0.00 90 1019.2
20260902034904 52 5 0.0 0.0 0.00 0.00 0.00 90 1019.2
20260902034404 52 5 0.0 0.0 0.00 0.00 0.00 90 1019.1
20260902033904 52 5 0.0 0.0 0.00 0.00 0.00 90 1019.1
20260902033404 52 5 0.0 0.0 0.00 0.00 0.00 90 1019.1
20260902032404 52 5 0.0 0.0 0.00 0.00 0.00 90 1019.1
20260902031404 52 5 0.0 0.0 0.00 0.00 0.00 90 1019.1
20260902030904 52 5 0.0 1.0 0.00 0.00 0.00 90 1019.1
20260902030404 52 5 0.0 1.0 0.00 0.00 0.00 90 1019.2
20260902024904 52 5 1.0 2.0 0.00 0.00 0.00 90 1019.2
20260902024404 52 5 1.0 2.0 0.00 0.00 0.00 90 1019.2
20260902023904 52 5 0.0 0.0 0.00 0.00 0.00 90 1019.3
20260902023404 53 5 0.0 0.0 0.00 0.00 0.00 90 1019.4
20260902022905 53 5 1.0 2.0 0.00 0.00 0.00 90 1019.4
20260902022404 52 5 1.0 2.0 0.00 0.00 0.00 90 1019.4
20260902021905 52 5 0.0 2.0 0.00 0.00 0.00 90 1019.5
20260902021404 52 5 2.0 3.0 0.00 0.00 0.00 90 1019.5
20260902020904 52 5 1.0 2.0 0.00 0.00 0.00 90 1019.5
20260902020404 52 5 1.0 2.0 0.00 0.00 0.00 89 1019.5
20260902015904 52 5 1.0 3.0 0.00 0.00 0.00 89 1019.4
20260902015405 52 321 2.0 3.0 0.00 0.00 0.00 89 1019.4
20260902014904 52 294 0.0 3.0 0.00 0.00 0.00 89 1019.3
20260902014404 52 294 0.0 0.0 0.00 0.00 0.00 89 1019.4
20260902013904 53 294 0.0 0.0 0.00 0.00 0.00 89 1019.4
20260902013404 53 294 0.0 0.0 0.00 0.00 0.00 88 1019.4
20260902012404 53 294 0.0 0.0 0.00 0.00 0.00 88 1019.4
20260902011905 53 294 0.0 0.0 0.00 0.00 0.00 88 1019.4
20260902011404 53 294 0.0 0.0 0.00 0.00 0.00 88 1019.3
20260902010904 53 294 0.0 0.0 0.00 0.00 0.00 88 1019.3
20260902010404 53 294 0.0 0.0 0.00 0.00 0.00 88 1019.3
20260902005904 53 294 0.0 0.0 0.00 0.00 0.00 88 1019.3
20260902005404 53 294 0.0 0.0 0.00 0.00 0.00 88 1019.3
20260902004904 53 294 0.0 0.0 0.00 0.00 0.00 87 1019.3
20260902004404 53 294 0.0 0.0 0.00 0.00 0.00 87 1019.2
20260902003904 53 294 0.0 0.0 0.00 0.00 0.00 87 1019.2
20260902002905 54 294 0.0 0.0 0.00 0.00 0.00 87 1019.3
20260902002405 54 294 0.0 0.0 0.00 0.00 0.00 87 1019.3
20260902001904 54 294 0.0 0.0 0.00 0.00 0.00 87 1019.3
20260902001405 54 294 0.0 0.0 0.00 0.00 0.00 86 1019.3
20260902000905 54 294 0.0 0.0 0.00 0.00 0.00 87 1019.3
20260902000406 54 294 0.0 0.0 0.00 0.00 0.00 86 1019.3
20260901235904 54 294 0.0 0.0 0.00 0.00 0.00 86 1019.2
20260901235406 54 294 0.0 0.0 0.00 0.00 0.00 86 1019.2
20260901234904 54 294 0.0 0.0 0.00 0.00 0.00 86 1019.3
20260901234404 55 294 0.0 0.0 0.00 0.00 0.00 86 1019.2
20260901233904 55 294 0.0 0.0 0.00 0.00 0.00 86 1019.2
20260901233404 55 294 0.0 0.0 0.00 0.00 0.00 86 1019.2
20260901232404 55 294 0.0 0.0 0.00 0.00 0.00 85 1019.1
20260901231404 55 294 0.0 0.0 0.00 0.00 0.00 86 1019.1
20260901230904 55 294 0.0 13.0 0.00 0.00 0.00 86 1019.1
20260901230404 56 294 0.0 0.0 0.00 0.00 0.00 85 1019.1
20260901225905 56 294 0.0 0.0 0.00 0.00 0.00 85 1019.2
20260901225404 56 294 0.0 0.0 0.00 0.00 0.00 85 1019.2
20260901224904 56 294 0.0 0.0 0.00 0.00 0.00 85 1019.1
20260901224404 56 294 0.0 0.0 0.00 0.00 0.00 85 1019.1
20260901223405 56 294 0.0 0.0 0.00 0.00 0.00 84 1019.1
20260901222904 56 294 0.0 0.0 0.00 0.00 0.00 84 1019.1
20260901222404 56 294 0.0 0.0 0.00 0.00 0.00 83 1019.2
20260901221404 57 294 0.0 0.0 0.00 0.00 0.00 83 1019.2
20260901220904 57 294 0.0 0.0 0.00 0.00 0.00 83 1019.1
20260901215904 57 294 0.0 0.0 0.00 0.00 0.00 82 1019.1
20260901215404 57 294 0.0 0.0 0.00 0.00 0.00 82 1019.1
20260901214905 57 294 0.0 0.0 0.00 0.00 0.00 82 1019.1
20260901214404 58 294 0.0 0.0 0.00 0.00 0.00 82 1019.1
20260901212904 58 294 0.0 0.0 0.00 0.00 0.00 81 1019.1
20260901212405 58 294 0.0 0.0 0.00 0.00 0.00 81 1019.1
20260901211904 58 294 0.0 0.0 0.00 0.00 0.00 81 1019.1
20260901211405 59 294 0.0 0.0 0.00 0.00 0.00 80 1019.0
20260901210904 59 294 0.0 0.0 0.00 0.00 0.00 79 1019.0
20260901210404 59 294 0.0 0.0 0.00 0.00 0.00 79 1018.9
20260901205404 59 294 0.0 0.0 0.00 0.00 0.00 79 1018.9
20260901204905 60 294 0.0 0.0 0.00 0.00 0.00 78 1018.9
20260901204404 60 294 0.0 0.0 0.00 0.00 0.00 78 1018.9
20260901203904 60 294 0.0 0.0 0.00 0.00 0.00 78 1018.8
20260901202904 60 294 0.0 0.0 0.00 0.00 0.00 77 1018.8
20260901202404 61 294 0.0 0.0 0.00 0.00 0.00 76 1018.8
20260901201904 61 294 0.0 1.0 0.00 0.00 0.00 76 1018.7
20260901201404 61 294 1.0 3.0 0.00 0.00 0.00 76 1018.7
20260901200404 61 294 1.0 3.0 0.00 0.00 0.00 75 1018.7
20260901195904 62 293 1.0 3.0 0.00 0.00 0.00 76 1018.7
20260901195404 62 292 2.0 3.0 0.00 0.00 0.00 74 1018.6
20260901194905 62 292 1.0 2.0 0.00 0.00 0.00 74 1018.6
20260901194404 62 292 0.0 1.0 0.00 0.00 0.00 73 1018.5
20260901193904 63 292 2.0 3.0 0.00 0.00 0.00 73 1018.6
20260901193405 63 292 0.0 0.0 0.00 0.00 0.00 72 1018.6
20260901192905 63 292 0.0 0.0 0.00 0.00 0.00 71 1018.5
20260901192404 63 292 0.0 0.0 0.00 0.00 0.00 71 1018.5
20260901191905 64 292 0.0 1.0 0.00 0.00 0.00 71 1018.5
20260901191405 64 292 0.0 1.0 0.00 0.00 0.00 70 1018.5
20260901190904 64 292 0.0 1.0 0.00 0.00 0.00 70 1018.5
20260901190405 65 292 0.0 0.0 0.00 0.00 0.00 70 1018.5
20260901185904 65 292 0.0 0.0 0.00 0.00 0.00 69 1018.5
20260901185404 65 292 0.0 0.0 0.00 0.00 0.00 68 1018.4
20260901184904 66 292 0.0 2.0 0.00 0.00 0.00 67 1018.4
20260901184404 66 292 0.0 3.0 0.00 0.00 0.00 66 1018.4
20260901183904 66 292 0.0 0.0 0.00 0.00 0.00 66 1018.4
20260901182904 67 292 0.0 1.0 0.00 0.00 0.00 65 1018.3
20260901182404 68 292 2.0 2.0 0.00 0.00 0.00 64 1018.3
20260901181405 69 292 0.0 0.0 0.00 0.00 0.00 62 1018.2
20260901180404 70 292 0.0 1.0 0.00 0.00 0.00 60 1018.1
20260901175904 70 292 0.0 0.0 0.00 0.00 0.00 60 1018.1
20260901175405 71 292 0.0 0.0 0.00 0.00 0.00 58 1018.0
20260901174404 71 292 0.0 0.0 0.00 0.00 0.00 56 1017.9
20260901173904 72 292 0.0 0.0 0.00 0.00 0.00 55 1017.8
20260901172905 72 292 0.0 0.0 0.00 0.00 0.00 54 1017.7
20260901172404 73 292 0.0 0.0 0.00 0.00 0.00 53 1017.7
20260901171904 73 292 0.0 1.0 0.00 0.00 0.00 52 1017.6
20260901171404 73 292 0.0 3.0 0.00 0.00 0.00 52 1017.7
20260901170904 74 292 2.0 5.0 0.00 0.00 0.00 52 1017.7
20260901170404 74 294 0.0 1.0 0.00 0.00 0.00 51 1017.7
20260901165904 74 294 0.0 2.0 0.00 0.00 0.00 51 1017.6
20260901165404 75 294 0.0 2.0 0.00 0.00 0.00 51 1017.6
20260901164905 75 294 1.0 3.0 0.00 0.00 0.00 50 1017.6
20260901164404 75 304 2.0 5.0 0.00 0.00 0.00 49 1017.6
20260901163904 76 301 2.0 5.0 0.00 0.00 0.00 49 1017.6
20260901163404 76 288 1.0 3.0 0.00 0.00 0.00 49 1017.7
20260901162904 76 300 2.0 6.0 0.00 0.00 0.00 48 1017.7
20260901162404 77 291 2.0 3.0 0.00 0.00 0.00 48 1017.7
20260901161904 77 296 2.0 5.0 0.00 0.00 0.00 47 1017.6
20260901161404 77 295 2.0 5.0 0.00 0.00 0.00 46 1017.6
20260901160904 78 292 3.0 6.0 0.00 0.00 0.00 45 1017.7
20260901160404 78 304 4.0 7.0 0.00 0.00 0.00 45 1017.7
20260901155404 78 330 3.0 7.0 0.00 0.00 0.00 46 1017.7
20260901154904 78 293 3.0 6.0 0.00 0.00 0.00 46 1017.6
20260901154404 78 294 4.0 7.0 0.00 0.00 0.00 46 1017.6
20260901153904 78 289 2.0 6.0 0.00 0.00 0.00 46 1017.6
20260901153404 78 309 2.0 6.0 0.00 0.00 0.00 46 1017.5
20260901152904 78 307 3.0 12.0 0.00 0.00 0.00 46 1017.5
20260901152404 78 296 4.0 7.0 0.00 0.00 0.00 46 1017.5
20260901151904 78 281 2.0 6.0 0.00 0.00 0.00 46 1017.4
20260901151404 78 270 2.0 5.0 0.00 0.00 0.00 46 1017.4
20260901150904 78 287 2.0 6.0 0.00 0.00 0.00 44 1017.4
20260901150404 79 302 3.0 7.0 0.00 0.00 0.00 44 1017.4
20260901145904 79 285 5.0 10.0 0.00 0.00 0.00 44 1017.5
20260901145405 79 294 5.0 10.0 0.00 0.00 0.00 43 1017.5
20260901144904 80 301 5.0 9.0 0.00 0.00 0.00 43 1017.5
20260901144405 80 290 7.0 12.0 0.00 0.00 0.00 42 1017.4
20260901143904 80 262 3.0 8.0 0.00 0.00 0.00 45 1017.4
20260901143404 80 231 2.0 6.0 0.00 0.00 0.00 44 1017.4
20260901142904 79 315 7.0 12.0 0.00 0.00 0.00 43 1017.4
20260901142404 79 290 5.0 12.0 0.00 0.00 0.00 44 1017.4
20260901141904 78 254 2.0 6.0 0.00 0.00 0.00 46 1017.3
20260901140404 79 277 3.0 8.0 0.00 0.00 0.00 45 1017.4
20260901135906 79 288 5.0 8.0 0.00 0.00 0.00 45 1017.4
20260901135404 79 240 4.0 9.0 0.00 0.00 0.00 46 1017.4
20260901134904 80 234 3.0 9.0 0.00 0.00 0.00 44 1017.5
20260901133904 80 287 3.0 10.0 0.00 0.01 0.00 44 1017.5
20260901133404 79 308 7.0 10.0 0.00 0.01 0.00 44 1017.5
20260901132904 79 301 8.0 13.0 0.00 0.01 0.00 46 1017.5
20260901132405 79 275 2.0 10.0 0.00 0.01 0.00 46 1017.5
20260901131905 78 238 3.0 9.0 0.00 0.01 0.00 49 1017.5
20260901131404 77 225 3.0 9.0 0.00 0.01 0.00 51 1017.5
20260901130904 77 232 3.0 10.0 0.00 0.01 0.00 53 1017.6
20260901130405 76 246 5.0 10.0 0.00 0.01 0.00 50 1017.6
20260901125904 76 233 3.0 7.0 0.00 0.01 0.00 52 1017.6
20260901125404 76 291 4.0 7.0 0.00 0.01 0.00 52 1017.6
20260901124904 76 286 6.0 12.0 0.00 0.01 0.00 50 1017.7
20260901124405 76 227 3.0 9.0 0.00 0.01 0.00 52 1017.6
20260901123904 75 327 3.0 9.0 0.00 0.01 0.00 53 1017.7
20260901123404 75 286 4.0 7.0 0.00 0.01 0.00 52 1017.7
20260901122904 75 298 4.0 7.0 0.00 0.01 0.00 53 1017.7
20260901122404 75 295 3.0 8.0 0.00 0.01 0.00 54 1017.7
20260901121904 74 219 2.0 7.0 0.00 0.01 0.00 55 1017.7
20260901121405 74 281 2.0 5.0 0.00 0.01 0.00 54 1017.7
20260901120905 74 320 3.0 8.0 0.00 0.01 0.00 55 1017.7
20260901120405 74 273 4.0 9.0 0.00 0.01 0.00 54 1017.7
20260901115904 74 299 6.0 12.0 0.00 0.01 0.00 54 1017.7
20260901115404 74 247 3.0 7.0 0.00 0.01 0.00 56 1017.6
20260901114904 74 219 1.0 5.0 0.00 0.01 0.00 56 1017.7
20260901114404 74 279 3.0 6.0 0.00 0.01 0.00 56 1017.8
20260901113904 74 229 2.0 6.0 0.00 0.01 0.00 56 1017.9
20260901112904 74 304 4.0 12.0 0.00 0.01 0.00 57 1017.9
20260901112404 73 263 3.0 10.0 0.00 0.01 0.00 58 1017.8
20260901111904 73 238 3.0 7.0 0.00 0.01 0.00 60 1017.9
20260901111404 73 274 2.0 7.0 0.00 0.01 0.00 58 1017.9
20260901105905 73 279 2.0 6.0 0.00 0.01 0.00 60 1017.9
20260901105405 73 218 1.0 3.0 0.00 0.01 0.00 59 1017.9
20260901104404 73 217 1.0 3.0 0.00 0.01 0.00 60 1018.0
20260901103904 73 268 2.0 7.0 0.00 0.01 0.00 59 1018.0
20260901103404 73 310 3.0 7.0 0.00 0.01 0.00 60 1018.0
20260901102904 73 278 1.0 3.0 0.00 0.01 0.00 60 1018.0
20260901102405 73 277 3.0 3.0 0.00 0.01 0.00 60 1018.0
20260901101904 73 294 3.0 6.0 0.00 0.01 0.00 60 1017.9
20260901101404 72 293 3.0 7.0 0.00 0.01 0.00 61 1017.9
20260901100904 72 232 3.0 6.0 0.00 0.01 0.00 64 1018.0
20260901095905 71 267 2.0 8.0 0.00 0.01 0.00 63 1018.0
20260901095404 71 239 4.0 8.0 0.00 0.01 0.00 64 1018.0
20260901094904 71 38 3.0 7.0 0.00 0.01 0.00 63 1018.1
20260901094404 71 233 1.0 7.0 0.00 0.01 0.00 65 1018.0
20260901093904 71 236 2.0 5.0 0.00 0.01 0.00 64 1018.0
20260901093404 71 279 3.0 6.0 0.00 0.01 0.00 63 1018.1
20260901092904 71 283 2.0 6.0 0.00 0.01 0.00 65 1018.0
20260901092404 71 244 2.0 6.0 0.00 0.01 0.00 64 1018.1
20260901091905 71 275 2.0 7.0 0.00 0.01 0.00 63 1018.0
20260901090904 70 287 4.0 8.0 0.00 0.01 0.00 64 1018.0
20260901090404 70 293 4.0 8.0 0.00 0.01 0.00 65 1018.0
20260901085904 70 292 2.0 8.0 0.00 0.01 0.00 64 1018.1
20260901085404 70 220 2.0 5.0 0.00 0.01 0.00 65 1017.9
20260901084904 70 246 4.0 8.0 0.00 0.01 0.00 65 1018.0
20260901084404 70 281 2.0 7.0 0.00 0.01 0.00 66 1018.0
20260901083905 70 294 4.0 8.0 0.00 0.01 0.00 66 1017.9
20260901083404 70 241 3.0 6.0 0.00 0.01 0.00 66 1017.9
20260901082904 70 289 5.0 9.0 0.00 0.01 0.00 67 1017.9
20260901081904 69 308 5.0 9.0 0.00 0.01 0.00 67 1017.9
20260901081404 69 290 4.0 8.0 0.00 0.01 0.00 68 1018.0
20260901080404 68 243 5.0 12.0 0.00 0.01 0.00 69 1017.9
20260901075904 68 235 3.0 12.0 0.00 0.01 0.00 70 1017.8
20260901075404 67 236 1.0 6.0 0.00 0.01 0.00 72 1017.8
20260901074904 67 234 2.0 6.0 0.00 0.01 0.00 74 1017.8
20260901074404 67 234 3.0 8.0 0.00 0.01 0.00 73 1017.7
20260901073905 66 233 5.0 9.0 0.00 0.01 0.00 73 1017.7
20260901072904 66 192 2.0 5.0 0.00 0.01 0.00 76 1017.6
20260901072405 66 188 2.0 7.0 0.00 0.01 0.00 74 1017.6
20260901071904 65 225 5.0 10.0 0.00 0.01 0.00 77 1017.6
20260901071404 65 204 4.0 8.0 0.00 0.01 0.00 78 1017.5
20260901070905 65 215 3.0 8.0 0.00 0.01 0.00 78 1017.4
20260901070404 64 195 3.0 8.0 0.00 0.01 0.00 81 1017.4
20260901065905 63 207 4.0 8.0 0.00 0.01 0.00 81 1017.4
20260901065405 62 208 5.0 10.0 0.00 0.01 0.00 84 1017.3
20260901064905 61 182 1.0 5.0 0.00 0.01 0.00 85 1017.2
20260901064404 61 182 3.0 7.0 0.00 0.01 0.00 88 1017.2
20260901063904 60 192 2.0 3.0 0.00 0.01 0.00 90 1017.1
20260901063404 60 215 3.0 6.0 0.00 0.01 0.00 91 1017.1
20260901062904 59 208 3.0 7.0 0.00 0.01 0.00 92 1017.1
20260901062404 59 178 3.0 5.0 0.00 0.01 0.00 92 1017.1
20260901061904 59 182 2.0 6.0 0.00 0.01 0.00 92 1017.1
20260901061404 58 157 3.0 5.0 0.00 0.01 0.00 92 1017.1
20260901060904 58 122 0.0 0.0 0.00 0.01 0.00 92 1017.0
20260901060404 58 96 0.0 0.0 0.00 0.01 0.00 93 1017.0
20260901055404 57 96 0.0 0.0 0.00 0.01 0.00 92 1016.8
20260901054904 57 96 0.0 0.0 0.00 0.01 0.00 92 1016.8
20260901054405 57 96 0.0 0.0 0.00 0.01 0.00 92 1016.8